Crescent City, CA

11:13 AM PDT on May 26, 2017 (GMT -0700)
McNamara

Weather History for KCEC - July, 2013

Change the Weather History Date:

Monday, July 15, 2013

  Actual Average Record
Temperature  
Mean Temperature 52 °F 56 °F  
Max Temperature 56 °F 61 °F 74 °F (1948)
Min Temperature 48 °F 51 °F 43 °F (1999)
Degree Days  
Heating Degree Days 14 9  
Month to date heating degree days 135  
Since 1 June heating degree days 444  
Since 1 July heating degree days 135  
Cooling Degree Days 0 0  
Month to date cooling degree days 0  
Year to date cooling degree days 0  
Since 1 June cooling degree days 0  
Growing Degree Days 2 (Base 50)    
Moisture  
Dew Point 51 °F    
Average Humidity 93    
Maximum Humidity 100    
Minimum Humidity 86    
Precipitation  
Precipitation 0.00 in 0.00 in 1.14 in (1964)
Month to date precipitation 0.00 0.28  
Year to date precipitation 19.93 37.21  
Since 1 July precipitation 0.00  
Snow  
Snow 0.00 in - - ()
Month to date snowfall 0.0  
Since 1 June snowfall 0.0  
Since 1 July snowfall 0.0  
Snow Depth -    
Sea Level Pressure  
Sea Level Pressure 29.88 in    
Wind  
Wind Speed 6 mph (South)    
Max Wind Speed 17 mph    
Max Gust Speed 20 mph    
Visibility 4 miles    
Events Fog    
T = Trace of Precipitation, MM = Missing Value Source: NWS Daily Summary

Daily Weather History Graph

Daily Weather History Graph

Search for Another Location

Airport or City:

Trip Planner

Search our weather history database for the weather conditions in past years. The results will help you decide how hot, cold, wet, or windy it might be!

Date:

Astronomy

Jul. 15, 2013 Rise Set
Actual Time 5:55 AM PDT 8:49 PM PDT
Civil Twilight 5:22 AM PDT 9:22 PM PDT
Nautical Twilight 4:40 AM PDT 10:04 PM PDT
Astronomical Twilight 3:51 AM PDT 10:53 PM PDT
Moon 1:28 PM PDT (7/15) No Moon Set
Length of Visible Light 16h 00m
Length of Day
14h 54m
Waxing Crescent, 46% of the Moon is Illuminated
Jul 15
Waxing Crescent
Jul 15
First Quarter
Jul 22
Full
Jul 29
Last Quarter
Aug 6
New

Hourly Weather History & Observations

Time (PDT) Temp. Dew Point Humidity Pressure Visibility Wind Dir Wind Speed Gust Speed Precip Events Conditions
12:56 AM 50.0 °F 48.9 °F 96% 29.94 in 9.0 mi Calm Calm - N/A   Clear
1:56 AM 51.1 °F 50.0 °F 96% 29.92 in 8.0 mi Calm Calm - N/A   Clear
2:10 AM 50.0 °F 48.2 °F 94% 29.92 in 2.5 mi Calm Calm - N/A   Partly Cloudy
2:22 AM 50.0 °F 48.2 °F 94% 29.91 in 5.0 mi Calm Calm - N/A   Mostly Cloudy
2:40 AM 50.0 °F 48.2 °F 94% 29.91 in 2.5 mi Calm Calm - N/A   Overcast
2:49 AM 50.0 °F 48.2 °F 94% 29.91 in 3.0 mi Calm Calm - N/A   Overcast
2:56 AM 50.0 °F 48.9 °F 96% 29.91 in 4.0 mi Calm Calm - N/A   Overcast
3:11 AM 50.0 °F 48.2 °F 94% 29.91 in 1.8 mi Calm Calm - N/A   Overcast
3:17 AM 50.0 °F 48.2 °F 94% 29.91 in 3.0 mi Calm Calm - N/A   Overcast
3:49 AM 50.0 °F 48.2 °F 94% 29.90 in 4.0 mi Calm Calm - N/A   Scattered Clouds
3:56 AM 50.0 °F 48.9 °F 96% 29.91 in 5.0 mi Calm Calm - N/A   Partly Cloudy
4:43 AM 50.0 °F 48.2 °F 94% 29.89 in 7.0 mi Calm Calm - N/A   Mostly Cloudy
4:56 AM 48.9 °F 48.0 °F 97% 29.89 in 5.0 mi Calm Calm - N/A   Overcast
5:56 AM 51.1 °F 51.1 °F 100% 29.89 in 6.0 mi Calm Calm - N/A   Overcast
6:03 AM 51.8 °F 51.8 °F 100% 29.88 in 3.0 mi Calm Calm - N/A   Overcast
6:09 AM 51.8 °F 51.8 °F 100% 29.88 in 1.8 mi SSW 3.5 mph - N/A   Overcast
6:15 AM 51.8 °F 51.8 °F 100% 29.88 in 0.8 mi South 4.6 mph - N/A   Overcast
6:56 AM 51.1 °F 51.1 °F 100% 29.88 in 0.5 mi South 3.5 mph - N/A Fog Fog
7:34 AM 51.8 °F 51.8 °F 100% 29.87 in 1.2 mi Calm Calm - N/A   Overcast
7:44 AM 51.8 °F 51.8 °F 100% 29.87 in 1.8 mi Calm Calm - N/A   Overcast
7:54 AM 51.8 °F 51.8 °F 100% 29.87 in 1.2 mi Calm Calm - N/A   Overcast
7:56 AM 52.0 °F 52.0 °F 100% 29.88 in 1.0 mi Calm Calm - N/A   Overcast
8:06 AM 51.8 °F 51.8 °F 100% 29.87 in 0.8 mi SSE 3.5 mph - N/A   Overcast
8:56 AM 52.0 °F 52.0 °F 100% 29.88 in 0.8 mi SSE 5.8 mph - N/A   Mist
9:12 AM 51.8 °F 51.8 °F 100% 29.88 in 1.2 mi South 5.8 mph - N/A   Overcast
9:19 AM 51.8 °F 51.8 °F 100% 29.87 in 2.0 mi South 6.9 mph - N/A   Overcast
9:27 AM 51.8 °F 51.8 °F 100% 29.87 in 1.8 mi South 5.8 mph - N/A   Overcast
9:31 AM 51.8 °F 51.8 °F 100% 29.87 in 3.0 mi South 6.9 mph - N/A   Overcast
9:54 AM 53.6 °F 53.6 °F 100% 29.87 in 1.8 mi South 8.1 mph - N/A   Overcast
9:56 AM 53.1 °F 53.1 °F 100% 29.88 in 1.2 mi South 8.1 mph - N/A   Overcast
10:07 AM 53.6 °F 51.8 °F 94% 29.88 in 2.0 mi South 9.2 mph - N/A   Overcast
10:16 AM 53.6 °F 51.8 °F 94% 29.87 in 1.2 mi South 10.4 mph - N/A   Overcast
10:56 AM 54.0 °F 51.1 °F 90% 29.88 in 1.8 mi South 11.5 mph - N/A   Overcast
11:14 AM 53.6 °F 51.8 °F 94% 29.87 in 1.0 mi South 12.7 mph - N/A   Overcast
11:29 AM 53.6 °F 51.8 °F 94% 29.87 in 2.0 mi South 13.8 mph - N/A   Overcast
11:43 AM 53.6 °F 51.8 °F 94% 29.87 in 5.0 mi South 12.7 mph - N/A   Overcast
11:56 AM 55.0 °F 52.0 °F 89% 29.87 in 7.0 mi South 13.8 mph - N/A   Overcast
12:56 PM 55.9 °F 52.0 °F 87% 29.88 in 9.0 mi South 12.7 mph - N/A   Overcast
1:56 PM 54.0 °F 51.1 °F 90% 29.87 in 4.0 mi South 11.5 mph - N/A   Overcast
2:56 PM 55.9 °F 52.0 °F 87% 29.86 in 4.0 mi South 12.7 mph - N/A   Overcast
3:09 PM 53.6 °F 51.8 °F 94% 29.86 in 2.0 mi South 13.8 mph - N/A   Overcast
3:29 PM 55.4 °F 51.8 °F 88% 29.86 in 4.0 mi SSE 10.4 mph - N/A   Overcast
3:56 PM 54.0 °F 51.1 °F 90% 29.86 in 5.0 mi SSE 13.8 mph - N/A   Overcast
4:56 PM 55.0 °F 51.1 °F 86% 29.86 in 7.0 mi South 15.0 mph - N/A   Overcast
5:56 PM 53.1 °F 51.1 °F 93% 29.85 in 7.0 mi South 12.7 mph - N/A   Overcast
6:56 PM 52.0 °F 50.0 °F 93% 29.85 in 8.0 mi South 10.4 mph - N/A   Overcast
7:56 PM 52.0 °F 50.0 °F 93% 29.85 in 7.0 mi SSE 10.4 mph - N/A   Overcast
8:56 PM 52.0 °F 50.0 °F 93% 29.84 in 6.0 mi SSE 9.2 mph - N/A   Overcast
9:56 PM 52.0 °F 50.0 °F 93% 29.86 in 7.0 mi SSE 6.9 mph - N/A   Overcast
10:56 PM 52.0 °F 51.1 °F 97% 29.86 in 4.0 mi SSE 10.4 mph - N/A   Overcast
11:56 PM 52.0 °F 51.1 °F 97% 29.86 in 4.0 mi SSE 8.1 mph - N/A   Overcast